Change the Weather History Date:

Saturday, January 17, 2015

  Actual Average Record
Temperature  
Mean Temperature 61 °F 60 °F  
Max Temperature 75 °F 70 °F 82 °F (1943)
Min Temperature 46 °F 51 °F 29 °F (1893)
Degree Days  
Heating Degree Days 4 6  
Month to date heating degree days 63 102  
Since 1 July heating degree days 240 285  
Cooling Degree Days 0 2  
Month to date cooling degree days 43 32  
Year to date cooling degree days 43 32  
Growing Degree Days 10 (Base 50)    
Moisture  
Dew Point 49 °F    
Average Humidity 67    
Maximum Humidity 93    
Minimum Humidity 41    
Precipitation  
Precipitation 0.00 in 0.06 in 2.17 in (2011)
Month to date precipitation 0.29 1.15  
Year to date precipitation 0.29 1.15  
Sea Level Pressure  
Sea Level Pressure 30.17 in    
Wind  
Wind Speed 5 mph (NNE)    
Max Wind Speed 12 mph    
Max Gust Speed 17 mph    
Visibility 10 miles    
Events      
T = Trace of Precipitation, MM = Missing Value Source: NWS Daily Summary

Daily Weather History Graph

Daily Weather History Graph

Search for Another Location

Airport or City:

Trip Planner

Search our weather history database for the weather conditions in past years. The results will help you decide how hot, cold, wet, or windy it might be!

Date:

Astronomy

Jan. 17, 2015 Rise Set
Actual Time 7:22 AM EST 5:58 PM EST
Civil Twilight 6:57 AM EST 6:23 PM EST
Nautical Twilight 6:28 AM EST 6:52 PM EST
Astronomical Twilight 6:00 AM EST 7:20 PM EST
Moon 4:19 AM EST (1/17) 3:21 PM EST (1/17)
Length of Visible Light 11h 26m
Length of Day
10h 35m
Waning Crescent, 11% of the Moon is Illuminated
Jan 17
Waning Crescent
Jan 20
New
Jan 26
First Quarter
Feb 3
Full
Feb 11
Last Quarter

Hourly Weather History & Observations

Time (EST) Temp. Dew Point Humidity Pressure Visibility Wind Dir Wind Speed Gust Speed Precip Events Conditions
12:53 AM 51.1 °F 46.9 °F 86% 30.19 in 10.0 mi Calm Calm - N/A   Clear
1:53 AM 50.0 °F 46.0 °F 86% 30.19 in 10.0 mi Calm Calm - N/A   Clear
2:53 AM 48.9 °F 46.0 °F 90% 30.20 in 9.0 mi NNE 4.6 mph - N/A   Clear
3:53 AM 48.2 °F 44.6 °F 87% 30.20 in 8.0 mi NNE 4.6 mph - N/A   Clear
4:53 AM 46.9 °F 44.1 °F 90% 30.19 in 8.0 mi North 4.6 mph - N/A   Clear
5:53 AM 48.0 °F 43.0 °F 83% 30.20 in 10.0 mi NNE 5.8 mph - N/A   Clear
6:53 AM 48.0 °F 43.0 °F 83% 30.21 in 10.0 mi NE 6.9 mph - N/A   Partly Cloudy
7:53 AM 48.9 °F 43.0 °F 80% 30.22 in 10.0 mi NNE 6.9 mph - N/A   Mostly Cloudy
8:53 AM 52.0 °F 44.1 °F 74% 30.23 in 10.0 mi NNE 9.2 mph - N/A   Scattered Clouds
9:53 AM 57.9 °F 46.9 °F 67% 30.24 in 10.0 mi NE 5.8 mph - N/A   Partly Cloudy
10:53 AM 64.0 °F 50.0 °F 60% 30.23 in 10.0 mi NE 4.6 mph - N/A   Partly Cloudy
11:53 AM 66.9 °F 51.1 °F 57% 30.20 in 10.0 mi Variable 4.6 mph - N/A   Scattered Clouds
12:53 PM 71.1 °F 51.1 °F 49% 30.16 in 10.0 mi Variable 5.8 mph - N/A   Partly Cloudy
1:53 PM 72.0 °F 50.0 °F 46% 30.13 in 10.0 mi Variable 6.9 mph - N/A   Mostly Cloudy
2:53 PM 73.0 °F 48.9 °F 42% 30.11 in 10.0 mi Variable 6.9 mph - N/A   Mostly Cloudy
3:53 PM 73.9 °F 48.9 °F 41% 30.10 in 10.0 mi East 8.1 mph - N/A   Mostly Cloudy
4:53 PM 73.0 °F 50.0 °F 44% 30.10 in 10.0 mi ESE 5.8 mph - N/A   Mostly Cloudy
5:53 PM 71.1 °F 50.0 °F 47% 30.11 in 10.0 mi East 3.5 mph - N/A   Mostly Cloudy
6:53 PM 69.1 °F 51.1 °F 53% 30.11 in 10.0 mi Calm Calm - N/A   Mostly Cloudy
7:53 PM 62.1 °F 55.9 °F 80% 30.12 in 10.0 mi West 5.8 mph - N/A   Clear
8:53 PM 61.0 °F 54.0 °F 78% 30.12 in 10.0 mi NW 3.5 mph - N/A   Clear
9:53 PM 60.1 °F 54.0 °F 80% 30.13 in 10.0 mi West 3.5 mph - N/A   Mostly Cloudy
10:53 PM 60.1 °F 55.0 °F 83% 30.14 in 10.0 mi West 3.5 mph - N/A   Scattered Clouds
11:53 PM 57.9 °F 55.0 °F 90% 30.12 in 9.0 mi Calm Calm - N/A   Partly Cloudy